Precipitable_Water
0.66 0.63 0.60 0.58 0.55 0.52 0.51 0.49 0.48 0.47 0.45 0.45 0.44 0.44 0.45 0.45 0.45 0.45 0.45 0.45 0.44 0.45 0.45 0.45 0.45 0.44 0.46 0.47 0.48 0.47 0.48 0.37 0.30 0.24 0.21 0.16 0.20 0.24 0.28 0.36 0.36 0.63 0.73 0.73 0.87 0.94 0.87 0.92 0.93 1.12 1.09 1.14 1.17 1.15 1.39 1.45 1.57 1.47 1.11 0.97 0.84 0.89 0.86 0.93 0.88 0.85 0.91 0.93 0.99 1.04 1.08 1.03 0.94 1.08 1.15 1.23 1.09 1.05 1.09 1.08 1.23 1.36 1.32 1.40 1.44 1.51 1.57 1.59
0.71 0.69 0.67 0.65 0.63 0.59 0.55 0.53 0.51 0.48 0.47 0.46 0.46 0.44 0.43 0.42 0.42 0.45 0.46 0.45 0.46 0.45 0.45 0.45 0.44 0.44 0.46 0.47 0.48 0.49 0.45 0.35 0.25 0.25 0.21 0.25 0.27 0.26 0.26 0.34 0.38 0.62 0.67 0.63 0.69 0.77 0.77 0.81 0.89 1.00 0.99 0.95 1.29 1.08 1.37 1.23 1.54 1.19 1.06 0.99 0.79 0.90 0.93 1.05 1.01 0.99 0.91 0.94 1.06 1.09 1.13 1.05 0.98 1.05 1.13 0.96 0.96 0.92 0.89 0.99 1.08 1.12 1.25 1.36 1.44 1.47 1.49 1.52
0.74 0.73 0.72 0.70 0.68 0.66 0.63 0.57 0.53 0.51 0.50 0.49 0.47 0.45 0.44 0.44 0.44 0.43 0.43 0.45 0.45 0.44 0.45 0.44 0.44 0.45 0.46 0.48 0.49 0.50 0.43 0.29 0.27 0.19 0.22 0.28 0.29 0.29 0.27 0.34 0.35 0.59 0.48 0.52 0.69 0.72 0.70 0.78 0.90 0.93 0.95 0.89 1.09 1.00 1.18 1.18 1.38 1.32 1.08 0.87 0.87 1.01 1.03 1.08 1.07 1.03 1.07 1.04 1.07 1.10 1.13 1.10 1.12 1.13 1.24 0.97 0.93 0.96 0.77 0.79 0.89 0.91 1.01 1.18 1.32 1.41 1.42 1.44
0.77 0.76 0.75 0.73 0.71 0.67 0.66 0.64 0.61 0.57 0.53 0.51 0.49 0.48 0.46 0.44 0.42 0.41 0.42 0.43 0.43 0.44 0.45 0.45 0.44 0.45 0.47 0.47 0.50 0.50 0.39 0.28 0.18 0.19 0.29 0.51 0.47 0.43 0.41 0.38 0.38 0.49 0.48 0.52 0.67 0.67 0.73 0.81 0.84 0.84 0.83 0.84 0.97 1.12 1.00 1.17 1.13 1.28 1.16 0.91 0.93 1.07 1.00 1.03 1.11 1.10 1.08 1.04 1.01 1.09 1.17 1.11 1.17 1.21 1.16 1.04 0.93 0.87 0.86 0.88 0.76 0.80 0.95 1.12 1.26 1.32 1.35 1.34
0.79 0.77 0.76 0.74 0.72 0.71 0.69 0.67 0.64 0.63 0.60 0.54 0.51 0.49 0.48 0.46 0.44 0.44 0.43 0.41 0.41 0.42 0.45 0.46 0.45 0.46 0.47 0.48 0.49 0.50 0.31 0.17 0.18 0.30 0.40 0.51 0.47 0.42 0.42 0.44 0.46 0.46 0.45 0.53 0.65 0.71 0.72 0.72 0.79 0.81 0.78 0.65 0.88 0.97 0.96 1.15 1.22 1.16 1.03 1.11 1.13 1.09 0.97 1.04 1.08 1.08 1.03 1.04 1.03 1.10 1.07 1.05 1.27 1.24 1.16 1.07 0.81 0.76 0.80 0.87 0.92 0.89 1.03 1.08 1.14 1.26 1.31 1.27
0.82 0.80 0.77 0.75 0.73 0.73 0.71 0.69 0.69 0.67 0.65 0.62 0.58 0.53 0.49 0.49 0.48 0.46 0.44 0.42 0.42 0.41 0.42 0.46 0.45 0.45 0.48 0.47 0.47 0.45 0.25 0.11 0.22 0.37 0.59 0.48 0.46 0.40 0.41 0.44 0.54 0.48 0.46 0.49 0.52 0.64 0.67 0.70 0.73 0.68 0.70 0.71 0.70 0.71 0.84 1.00 1.19 0.89 1.02 1.07 1.13 1.13 1.03 1.05 1.05 1.05 1.04 0.97 0.96 1.02 1.11 1.19 1.13 1.08 1.15 1.10 0.90 0.89 0.99 1.00 1.01 1.01 1.05 1.12 1.17 1.23 1.23 1.22
0.84 0.82 0.80 0.78 0.76 0.75 0.74 0.73 0.71 0.69 0.68 0.65 0.63 0.60 0.54 0.49 0.46 0.46 0.45 0.43 0.42 0.42 0.42 0.44 0.45 0.47 0.46 0.47 0.46 0.36 0.23 0.20 0.26 0.27 0.41 0.37 0.44 0.43 0.45 0.50 0.58 0.47 0.41 0.40 0.48 0.55 0.61 0.63 0.67 0.62 0.65 0.66 0.74 0.74 0.81 0.87 1.10 1.01 0.86 1.02 1.01 1.05 0.97 1.02 0.99 1.01 1.01 0.98 0.93 1.00 1.15 1.06 1.08 0.96 1.13 1.03 1.05 1.06 1.07 1.11 1.09 1.13 1.16 1.17 1.11 1.17 1.17 1.17
0.86 0.84 0.83 0.80 0.79 0.77 0.76 0.74 0.73 0.71 0.69 0.68 0.65 0.62 0.59 0.55 0.52 0.48 0.47 0.46 0.45 0.44 0.44 0.43 0.45 0.45 0.48 0.40 0.28 0.20 0.21 0.18 0.28 0.30 0.28 0.42 0.52 0.52 0.52 0.55 0.47 0.43 0.32 0.31 0.43 0.49 0.58 0.57 0.56 0.69 0.63 0.58 0.67 0.72 0.80 0.78 0.92 0.88 0.87 0.99 1.00 1.03 1.01 1.00 0.99 0.96 0.94 0.91 0.93 0.98 0.96 0.99 1.03 1.00 1.09 0.98 1.07 1.14 1.13 1.17 1.18 1.15 1.14 1.11 1.08 1.13 1.18 1.18
0.86 0.85 0.84 0.83 0.81 0.79 0.77 0.75 0.74 0.72 0.70 0.68 0.66 0.64 0.62 0.61 0.58 0.53 0.49 0.47 0.45 0.44 0.45 0.47 0.43 0.46 0.49 0.38 0.22 0.16 0.15 0.25 0.28 0.31 0.37 0.41 0.52 0.54 0.49 0.40 0.45 0.32 0.28 0.35 0.44 0.52 0.54 0.55 0.58 0.65 0.55 0.63 0.73 0.67 0.73 0.67 0.63 0.82 0.85 0.94 0.93 0.90 0.94 0.96 0.91 0.88 0.85 0.85 0.85 0.83 0.85 0.96 1.05 1.15 0.98 1.00 1.11 1.20 1.23 1.19 1.18 1.17 1.10 1.08 1.02 1.08 1.13 1.14
0.84 0.83 0.83 0.82 0.82 0.80 0.78 0.76 0.74 0.72 0.70 0.69 0.68 0.65 0.64 0.63 0.61 0.59 0.54 0.48 0.46 0.46 0.46 0.47 0.48 0.43 0.39 0.26 0.26 0.14 0.20 0.28 0.33 0.41 0.40 0.45 0.51 0.45 0.44 0.37 0.34 0.30 0.27 0.35 0.45 0.54 0.51 0.57 0.55 0.69 0.69 0.66 0.70 0.65 0.74 0.70 0.64 0.83 0.81 0.84 0.85 0.88 0.88 0.89 0.83 0.80 0.79 0.77 0.77 0.70 0.73 0.85 1.08 1.04 0.85 1.09 1.16 1.22 1.20 1.16 1.20 1.16 1.10 1.08 1.04 1.05 1.13 1.13
0.84 0.83 0.82 0.81 0.80 0.80 0.79 0.77 0.76 0.73 0.71 0.69 0.68 0.67 0.66 0.64 0.62 0.60 0.57 0.53 0.48 0.47 0.48 0.48 0.49 0.46 0.27 0.31 0.14 0.12 0.27 0.32 0.41 0.46 0.48 0.49 0.46 0.40 0.33 0.38 0.37 0.31 0.31 0.36 0.36 0.48 0.50 0.55 0.57 0.63 0.64 0.57 0.64 0.61 0.62 0.65 0.78 0.77 0.82 0.79 0.76 0.79 0.79 0.77 0.71 0.71 0.71 0.67 0.69 0.67 0.68 0.85 0.99 1.00 0.83 1.00 1.16 1.19 1.12 1.14 1.16 1.15 1.14 1.10 1.05 1.06 1.11 1.15
0.84 0.83 0.82 0.80 0.79 0.79 0.78 0.78 0.76 0.75 0.72 0.69 0.67 0.67 0.67 0.66 0.63 0.60 0.59 0.57 0.54 0.50 0.49 0.50 0.51 0.45 0.36 0.25 0.16 0.15 0.28 0.29 0.39 0.46 0.52 0.49 0.40 0.40 0.44 0.41 0.43 0.36 0.36 0.34 0.35 0.41 0.45 0.47 0.55 0.55 0.41 0.61 0.51 0.62 0.61 0.71 0.70 0.75 0.72 0.60 0.63 0.66 0.64 0.69 0.66 0.68 0.67 0.64 0.68 0.69 0.69 0.73 0.85 0.77 0.93 1.09 1.18 1.17 1.10 1.10 1.13 1.14 1.15 1.14 1.06 1.09 1.10 1.10
0.82 0.82 0.81 0.81 0.80 0.79 0.77 0.76 0.75 0.74 0.73 0.71 0.69 0.68 0.67 0.64 0.62 0.63 0.67 0.66 0.62 0.55 0.52 0.51 0.52 0.45 0.30 0.14 0.16 0.22 0.25 0.30 0.32 0.34 0.36 0.37 0.34 0.42 0.48 0.50 0.43 0.43 0.39 0.34 0.34 0.38 0.43 0.44 0.48 0.43 0.49 0.52 0.57 0.48 0.69 0.70 0.67 0.71 0.71 0.61 0.57 0.57 0.57 0.65 0.64 0.62 0.61 0.61 0.67 0.69 0.46 0.54 0.67 0.82 0.99 1.12 1.15 1.16 1.10 1.08 1.12 1.13 1.15 1.15 1.09 1.05 1.10 1.13
0.79 0.79 0.79 0.80 0.80 0.80 0.79 0.77 0.74 0.73 0.72 0.71 0.71 0.70 0.66 0.64 0.66 0.72 0.75 0.73 0.72 0.64 0.58 0.56 0.53 0.41 0.27 0.13 0.19 0.26 0.29 0.30 0.29 0.28 0.30 0.36 0.32 0.33 0.42 0.53 0.53 0.45 0.45 0.38 0.39 0.41 0.42 0.43 0.42 0.38 0.46 0.42 0.43 0.68 0.65 0.65 0.65 0.56 0.59 0.55 0.48 0.48 0.47 0.59 0.57 0.59 0.53 0.60 0.63 0.65 0.41 0.46 0.60 0.78 0.97 1.10 1.14 1.08 1.02 1.06 1.09 1.10 1.13 1.14 1.09 1.05 1.04 1.08
0.74 0.74 0.76 0.76 0.77 0.78 0.77 0.76 0.73 0.72 0.72 0.71 0.71 0.69 0.67 0.69 0.76 0.77 0.75 0.71 0.74 0.73 0.68 0.64 0.55 0.36 0.21 0.17 0.25 0.28 0.29 0.31 0.25 0.26 0.31 0.32 0.32 0.32 0.35 0.44 0.47 0.46 0.43 0.41 0.39 0.42 0.46 0.45 0.42 0.34 0.31 0.42 0.45 0.44 0.45 0.51 0.55 0.55 0.49 0.44 0.47 0.44 0.48 0.54 0.56 0.55 0.49 0.57 0.64 0.57 0.43 0.43 0.55 0.71 0.95 1.06 1.11 1.08 1.00 1.04 1.07 1.09 1.13 1.16 1.11 1.07 1.04 1.03
0.64 0.65 0.68 0.70 0.72 0.73 0.74 0.73 0.72 0.71 0.72 0.70 0.70 0.67 0.73 0.79 0.80 0.77 0.75 0.71 0.73 0.75 0.76 0.54 0.50 0.39 0.27 0.17 0.17 0.46 0.39 0.25 0.21 0.26 0.31 0.32 0.33 0.29 0.35 0.40 0.47 0.49 0.46 0.41 0.43 0.42 0.42 0.42 0.33 0.32 0.30 0.34 0.35 0.36 0.39 0.41 0.44 0.51 0.48 0.44 0.43 0.41 0.45 0.46 0.50 0.52 0.50 0.51 0.58 0.52 0.43 0.50 0.55 0.73 0.92 1.04 1.06 1.06 1.02 1.03 1.05 1.07 1.11 1.16 1.15 1.09 1.05 1.02
0.57 0.58 0.58 0.60 0.62 0.65 0.68 0.69 0.69 0.70 0.70 0.70 0.69 0.69 0.77 0.82 0.84 0.84 0.83 0.81 0.77 0.78 0.67 0.50 0.53 0.54 0.21 0.28 0.40 0.28 0.22 0.26 0.35 0.36 0.41 0.35 0.32 0.32 0.36 0.38 0.38 0.42 0.46 0.44 0.41 0.39 0.39 0.32 0.36 0.33 0.34 0.26 0.31 0.33 0.32 0.32 0.34 0.41 0.44 0.42 0.45 0.42 0.44 0.41 0.49 0.50 0.53 0.52 0.46 0.55 0.50 0.51 0.62 0.73 0.87 1.00 1.03 1.04 1.01 1.00 1.03 1.07 1.10 1.15 1.15 1.11 1.05 1.00
0.55 0.55 0.55 0.55 0.55 0.55 0.59 0.62 0.64 0.67 0.69 0.68 0.67 0.72 0.76 0.78 0.86 0.86 0.84 0.83 0.86 0.85 0.82 0.79 0.60 0.48 0.32 0.38 0.24 0.24 0.35 0.33 0.34 0.36 0.40 0.43 0.40 0.34 0.33 0.33 0.38 0.40 0.40 0.35 0.40 0.30 0.34 0.26 0.32 0.22 0.25 0.24 0.26 0.26 0.24 0.22 0.30 0.36 0.41 0.40 0.41 0.42 0.43 0.42 0.41 0.45 0.46 0.54 0.47 0.50 0.51 0.53 0.63 0.76 0.85 0.92 1.02 1.00 0.97 0.98 1.00 1.05 1.10 1.14 1.15 1.11 1.06 1.00
0.54 0.54 0.54 0.53 0.51 0.50 0.50 0.52 0.58 0.62 0.66 0.65 0.68 0.75 0.80 0.84 0.83 0.81 0.71 0.70 0.56 0.46 0.37 0.44 0.43 0.25 0.21 0.29 0.36 0.34 0.33 0.37 0.40 0.37 0.34 0.37 0.40 0.37 0.32 0.37 0.39 0.34 0.29 0.28 0.30 0.30 0.31 0.27 0.27 0.21 0.16 0.19 0.20 0.23 0.22 0.30 0.38 0.41 0.43 0.43 0.44 0.39 0.40 0.40 0.44 0.47 0.46 0.40 0.44 0.49 0.49 0.51 0.62 0.72 0.85 0.94 1.01 0.98 0.98 1.03 1.05 1.08 1.11 1.12 1.12 1.10 1.08 1.01
0.52 0.52 0.52 0.52 0.50 0.47 0.45 0.45 0.49 0.58 0.63 0.60 0.61 0.60 0.60 0.48 0.46 0.44 0.62 0.54 0.47 0.44 0.42 0.44 0.50 0.44 0.41 0.37 0.33 0.40 0.42 0.41 0.30 0.33 0.39 0.43 0.39 0.32 0.28 0.29 0.33 0.34 0.29 0.22 0.27 0.29 0.32 0.19 0.16 0.14 0.15 0.19 0.22 0.23 0.25 0.30 0.38 0.44 0.42 0.40 0.40 0.39 0.39 0.43 0.44 0.46 0.46 0.41 0.38 0.42 0.52 0.54 0.62 0.71 0.79 0.89 0.98 0.99 1.00 1.00 1.02 1.05 1.07 1.09 1.10 1.08 1.06 1.02
0.51 0.52 0.51 0.50 0.49 0.45 0.43 0.41 0.42 0.54 0.56 0.57 0.58 0.50 0.41 0.42 0.38 0.36 0.44 0.47 0.49 0.49 0.46 0.45 0.45 0.43 0.40 0.42 0.41 0.37 0.29 0.30 0.37 0.35 0.41 0.51 0.41 0.32 0.25 0.25 0.26 0.24 0.26 0.27 0.24 0.30 0.31 0.20 0.16 0.18 0.20 0.20 0.22 0.25 0.26 0.26 0.32 0.38 0.41 0.41 0.40 0.41 0.37 0.43 0.44 0.46 0.46 0.41 0.38 0.43 0.49 0.55 0.62 0.75 0.84 0.94 0.95 0.90 0.92 0.96 0.98 1.01 1.05 1.07 1.07 1.06 1.06 1.05
0.48 0.49 0.50 0.48 0.47 0.45 0.41 0.38 0.39 0.51 0.48 0.52 0.51 0.44 0.47 0.48 0.52 0.55 0.50 0.38 0.45 0.47 0.46 0.46 0.46 0.43 0.48 0.46 0.47 0.45 0.38 0.30 0.28 0.30 0.40 0.48 0.38 0.27 0.25 0.22 0.21 0.19 0.25 0.28 0.28 0.24 0.20 0.15 0.18 0.22 0.24 0.22 0.22 0.23 0.25 0.25 0.27 0.34 0.36 0.37 0.37 0.38 0.41 0.45 0.45 0.47 0.47 0.42 0.37 0.37 0.36 0.47 0.60 0.70 0.84 0.89 0.87 0.88 0.93 0.94 0.93 0.97 1.00 1.04 1.07 1.07 1.08 1.11
0.46 0.47 0.46 0.48 0.46 0.44 0.40 0.36 0.38 0.47 0.40 0.42 0.43 0.46 0.44 0.53 0.58 0.61 0.57 0.46 0.41 0.48 0.44 0.43 0.40 0.41 0.42 0.46 0.46 0.48 0.34 0.29 0.25 0.28 0.33 0.43 0.38 0.32 0.26 0.21 0.20 0.20 0.24 0.25 0.19 0.18 0.15 0.16 0.20 0.24 0.24 0.21 0.19 0.20 0.20 0.22 0.26 0.29 0.31 0.31 0.29 0.36 0.38 0.35 0.41 0.45 0.44 0.42 0.38 0.38 0.34 0.39 0.49 0.64 0.76 0.89 0.93 0.96 1.03 1.04 1.03 1.05 0.99 1.00 1.02 1.05 1.08 1.10
0.45 0.45 0.45 0.45 0.45 0.41 0.38 0.34 0.38 0.38 0.32 0.40 0.44 0.43 0.51 0.55 0.57 0.58 0.49 0.37 0.34 0.40 0.45 0.45 0.43 0.41 0.41 0.40 0.46 0.42 0.35 0.34 0.31 0.26 0.38 0.39 0.34 0.36 0.29 0.22 0.19 0.20 0.20 0.22 0.20 0.18 0.15 0.18 0.22 0.22 0.23 0.21 0.17 0.18 0.17 0.18 0.19 0.25 0.28 0.28 0.26 0.31 0.38 0.39 0.41 0.41 0.41 0.42 0.40 0.38 0.34 0.36 0.44 0.51 0.63 0.78 0.93 0.96 1.00 1.07 1.08 1.11 1.12 1.11 1.13 1.15 1.14 1.09
0.44 0.44 0.44 0.44 0.42 0.42 0.35 0.33 0.25 0.25 0.32 0.34 0.40 0.48 0.50 0.53 0.56 0.61 0.45 0.37 0.36 0.36 0.48 0.45 0.45 0.42 0.43 0.50 0.49 0.39 0.39 0.38 0.36 0.32 0.37 0.37 0.36 0.35 0.28 0.28 0.22 0.18 0.19 0.22 0.23 0.21 0.20 0.22 0.23 0.19 0.20 0.21 0.19 0.16 0.17 0.17 0.15 0.19 0.25 0.27 0.26 0.30 0.36 0.39 0.40 0.39 0.36 0.35 0.37 0.34 0.26 0.27 0.39 0.47 0.53 0.64 0.80 0.84 0.94 0.96 0.97 1.02 1.07 1.10 1.07 1.08 1.14 1.16
0.43 0.43 0.43 0.44 0.43 0.40 0.36 0.21 0.21 0.29 0.26 0.27 0.34 0.42 0.47 0.52 0.56 0.61 0.45 0.29 0.23 0.31 0.40 0.32 0.44 0.36 0.46 0.39 0.44 0.41 0.42 0.31 0.38 0.35 0.37 0.41 0.44 0.37 0.32 0.27 0.25 0.17 0.20 0.21 0.21 0.21 0.19 0.24 0.22 0.20 0.18 0.18 0.18 0.16 0.17 0.18 0.14 0.14 0.16 0.25 0.27 0.29 0.33 0.37 0.38 0.37 0.31 0.29 0.38 0.41 0.26 0.23 0.37 0.42 0.53 0.65 0.70 0.72 0.85 0.89 0.92 0.99 1.03 1.05 1.05 1.08 1.10 1.11
0.41 0.43 0.42 0.42 0.42 0.42 0.25 0.18 0.30 0.33 0.21 0.24 0.37 0.45 0.47 0.51 0.59 0.56 0.32 0.24 0.20 0.32 0.30 0.38 0.38 0.37 0.41 0.39 0.41 0.42 0.25 0.27 0.39 0.37 0.35 0.44 0.39 0.46 0.31 0.26 0.27 0.25 0.25 0.26 0.23 0.19 0.23 0.21 0.22 0.21 0.19 0.17 0.15 0.14 0.17 0.18 0.15 0.12 0.18 0.22 0.26 0.27 0.29 0.33 0.36 0.36 0.34 0.37 0.38 0.37 0.32 0.24 0.25 0.32 0.46 0.61 0.66 0.70 0.75 0.82 0.89 0.95 0.99 1.01 1.04 1.07 1.09 1.11
0.40 0.41 0.42 0.40 0.41 0.42 0.31 0.34 0.31 0.23 0.27 0.34 0.41 0.45 0.49 0.51 0.56 0.54 0.28 0.15 0.16 0.36 0.29 0.33 0.35 0.40 0.38 0.40 0.42 0.34 0.31 0.31 0.28 0.31 0.36 0.43 0.46 0.41 0.35 0.29 0.24 0.23 0.25 0.24 0.15 0.21 0.23 0.19 0.19 0.18 0.18 0.17 0.14 0.14 0.18 0.19 0.15 0.14 0.19 0.21 0.21 0.23 0.26 0.30 0.32 0.33 0.34 0.33 0.28 0.32 0.34 0.25 0.22 0.29 0.39 0.46 0.52 0.65 0.71 0.77 0.83 0.89 0.95 0.99 1.03 1.06 1.09 1.11
0.39 0.41 0.41 0.40 0.39 0.39 0.40 0.36 0.34 0.26 0.34 0.40 0.40 0.45 0.47 0.52 0.49 0.29 0.21 0.14 0.29 0.31 0.40 0.29 0.42 0.35 0.34 0.38 0.36 0.36 0.32 0.30 0.24 0.30 0.36 0.41 0.46 0.40 0.31 0.32 0.31 0.28 0.28 0.25 0.18 0.22 0.24 0.22 0.20 0.18 0.17 0.15 0.16 0.18 0.18 0.18 0.14 0.17 0.20 0.20 0.21 0.22 0.23 0.27 0.29 0.30 0.31 0.30 0.24 0.29 0.32 0.24 0.21 0.26 0.31 0.42 0.44 0.50 0.61 0.72 0.80 0.86 0.92 0.96 1.00 1.04 1.08 1.12
0.39 0.40 0.42 0.39 0.37 0.32 0.33 0.40 0.34 0.36 0.40 0.42 0.42 0.44 0.47 0.43 0.32 0.20 0.17 0.12 0.33 0.24 0.30 0.32 0.31 0.28 0.33 0.30 0.30 0.33 0.31 0.29 0.28 0.30 0.33 0.33 0.39 0.43 0.41 0.42 0.33 0.30 0.27 0.29 0.25 0.26 0.28 0.31 0.29 0.24 0.19 0.18 0.17 0.19 0.20 0.19 0.19 0.21 0.20 0.17 0.17 0.18 0.18 0.21 0.24 0.27 0.26 0.22 0.22 0.29 0.31 0.27 0.19 0.23 0.27 0.32 0.38 0.47 0.57 0.69 0.81 0.89 0.95 0.99 1.03 1.04 1.06 1.08
0.39 0.39 0.40 0.41 0.31 0.34 0.35 0.23 0.30 0.38 0.41 0.44 0.40 0.40 0.37 0.29 0.18 0.16 0.11 0.15 0.30 0.29 0.32 0.31 0.29 0.34 0.28 0.27 0.25 0.30 0.31 0.30 0.27 0.29 0.27 0.32 0.34 0.38 0.37 0.36 0.38 0.31 0.28 0.27 0.25 0.27 0.28 0.29 0.27 0.27 0.27 0.24 0.23 0.20 0.23 0.23 0.23 0.22 0.17 0.15 0.14 0.14 0.17 0.16 0.17 0.22 0.18 0.15 0.20 0.26 0.28 0.28 0.19 0.18 0.27 0.33 0.39 0.46 0.53 0.57 0.64 0.75 0.85 0.91 0.96 0.99 1.04 1.07
0.39 0.39 0.38 0.38 0.37 0.43 0.29 0.24 0.32 0.39 0.41 0.45 0.39 0.30 0.26 0.14 0.20 0.11 0.11 0.28 0.17 0.25 0.26 0.27 0.31 0.31 0.31 0.32 0.30 0.28 0.28 0.29 0.28 0.27 0.24 0.26 0.28 0.30 0.31 0.27 0.29 0.23 0.22 0.22 0.21 0.28 0.26 0.26 0.29 0.28 0.29 0.26 0.24 0.21 0.22 0.23 0.24 0.22 0.19 0.16 0.11 0.09 0.09 0.08 0.11 0.11 0.13 0.12 0.18 0.23 0.26 0.24 0.20 0.21 0.27 0.32 0.38 0.44 0.52 0.55 0.58 0.63 0.72 0.85 0.90 0.93 0.98 1.03
0.38 0.39 0.38 0.38 0.39 0.36 0.38 0.38 0.40 0.39 0.42 0.45 0.32 0.30 0.17 0.12 0.08 0.13 0.15 0.18 0.17 0.28 0.28 0.34 0.30 0.31 0.31 0.30 0.29 0.30 0.29 0.26 0.28 0.26 0.26 0.26 0.27 0.30 0.33 0.32 0.32 0.27 0.18 0.23 0.23 0.23 0.23 0.28 0.28 0.26 0.28 0.30 0.27 0.20 0.19 0.18 0.21 0.21 0.17 0.14 0.11 0.08 0.07 0.06 0.07 0.10 0.11 0.13 0.18 0.21 0.25 0.21 0.21 0.23 0.26 0.28 0.34 0.43 0.50 0.56 0.58 0.58 0.60 0.67 0.75 0.81 0.89 0.96
0.38 0.40 0.33 0.37 0.41 0.41 0.40 0.42 0.40 0.40 0.37 0.42 0.27 0.19 0.17 0.10 0.09 0.27 0.14 0.17 0.19 0.30 0.32 0.31 0.32 0.32 0.31 0.28 0.29 0.30 0.25 0.28 0.27 0.25 0.25 0.23 0.27 0.26 0.30 0.33 0.34 0.30 0.26 0.24 0.21 0.21 0.17 0.18 0.21 0.24 0.20 0.28 0.26 0.23 0.21 0.19 0.19 0.19 0.21 0.17 0.12 0.11 0.08 0.06 0.06 0.06 0.07 0.09 0.14 0.20 0.19 0.17 0.17 0.18 0.27 0.29 0.33 0.38 0.46 0.52 0.56 0.57 0.59 0.64 0.70 0.77 0.85 0.91
0.38 0.38 0.35 0.36 0.38 0.40 0.42 0.42 0.39 0.39 0.38 0.35 0.22 0.14 0.10 0.09 0.14 0.14 0.16 0.19 0.23 0.26 0.26 0.33 0.30 0.29 0.29 0.30 0.31 0.33 0.32 0.26 0.28 0.25 0.23 0.23 0.23 0.27 0.28 0.30 0.33 0.33 0.30 0.22 0.23 0.23 0.20 0.18 0.22 0.26 0.24 0.26 0.23 0.25 0.27 0.24 0.22 0.22 0.21 0.21 0.16 0.12 0.14 0.08 0.09 0.09 0.10 0.10 0.11 0.16 0.16 0.22 0.19 0.26 0.30 0.31 0.32 0.35 0.40 0.44 0.47 0.51 0.56 0.62 0.69 0.76 0.81 0.86
0.34 0.30 0.34 0.33 0.33 0.35 0.40 0.41 0.39 0.37 0.34 0.27 0.19 0.11 0.09 0.13 0.12 0.19 0.18 0.30 0.27 0.23 0.24 0.26 0.29 0.27 0.28 0.29 0.32 0.31 0.36 0.29 0.29 0.26 0.23 0.23 0.26 0.27 0.32 0.33 0.31 0.32 0.28 0.23 0.24 0.20 0.22 0.19 0.25 0.26 0.29 0.26 0.24 0.25 0.25 0.27 0.16 0.19 0.20 0.15 0.14 0.18 0.18 0.13 0.13 0.14 0.14 0.13 0.11 0.18 0.17 0.20 0.24 0.25 0.28 0.29 0.29 0.31 0.35 0.39 0.43 0.45 0.50 0.56 0.62 0.69 0.74 0.80
0.28 0.31 0.21 0.31 0.31 0.35 0.37 0.39 0.39 0.35 0.33 0.26 0.19 0.11 0.14 0.15 0.20 0.23 0.28 0.26 0.27 0.27 0.23 0.16 0.21 0.24 0.25 0.26 0.28 0.31 0.32 0.33 0.30 0.27 0.22 0.24 0.23 0.30 0.31 0.33 0.38 0.35 0.33 0.30 0.25 0.27 0.20 0.19 0.25 0.25 0.23 0.26 0.28 0.27 0.26 0.26 0.26 0.22 0.15 0.15 0.20 0.22 0.21 0.16 0.11 0.11 0.11 0.09 0.10 0.14 0.12 0.14 0.17 0.14 0.26 0.27 0.26 0.29 0.32 0.35 0.38 0.40 0.45 0.49 0.56 0.62 0.67 0.73
0.31 0.27 0.27 0.30 0.31 0.36 0.38 0.39 0.37 0.35 0.29 0.24 0.17 0.18 0.29 0.18 0.26 0.23 0.31 0.31 0.30 0.28 0.22 0.20 0.20 0.26 0.25 0.28 0.28 0.30 0.34 0.30 0.30 0.30 0.24 0.25 0.22 0.35 0.32 0.33 0.38 0.38 0.38 0.38 0.29 0.28 0.27 0.19 0.23 0.25 0.24 0.25 0.28 0.28 0.25 0.26 0.27 0.22 0.18 0.21 0.17 0.13 0.13 0.17 0.16 0.09 0.08 0.07 0.08 0.10 0.13 0.13 0.14 0.15 0.22 0.23 0.25 0.26 0.29 0.34 0.37 0.39 0.40 0.44 0.51 0.57 0.64 0.70
0.33 0.27 0.16 0.27 0.34 0.36 0.37 0.39 0.32 0.29 0.26 0.20 0.19 0.19 0.27 0.27 0.31 0.27 0.32 0.33 0.31 0.27 0.21 0.22 0.20 0.24 0.28 0.27 0.31 0.33 0.33 0.28 0.32 0.30 0.25 0.26 0.22 0.32 0.32 0.36 0.34 0.40 0.43 0.42 0.32 0.30 0.30 0.21 0.22 0.26 0.24 0.24 0.25 0.25 0.18 0.19 0.24 0.26 0.25 0.22 0.23 0.19 0.15 0.13 0.13 0.14 0.12 0.08 0.08 0.06 0.10 0.08 0.13 0.13 0.17 0.20 0.23 0.24 0.26 0.31 0.34 0.37 0.40 0.41 0.44 0.48 0.55 0.63
0.27 0.19 0.16 0.31 0.36 0.38 0.41 0.40 0.32 0.28 0.23 0.17 0.24 0.25 0.36 0.30 0.32 0.36 0.35 0.33 0.29 0.27 0.24 0.23 0.27 0.24 0.27 0.28 0.33 0.31 0.34 0.33 0.32 0.31 0.30 0.31 0.27 0.37 0.31 0.38 0.35 0.37 0.42 0.43 0.34 0.35 0.28 0.30 0.19 0.24 0.27 0.25 0.20 0.23 0.19 0.19 0.17 0.19 0.20 0.19 0.20 0.19 0.20 0.19 0.18 0.14 0.11 0.09 0.08 0.07 0.06 0.07 0.10 0.14 0.14 0.16 0.21 0.24 0.25 0.28 0.33 0.36 0.39 0.42 0.43 0.44 0.47 0.53
0.36 0.23 0.19 0.35 0.38 0.41 0.43 0.40 0.27 0.27 0.25 0.32 0.33 0.31 0.33 0.32 0.37 0.36 0.37 0.38 0.35 0.39 0.32 0.29 0.28 0.25 0.27 0.26 0.28 0.36 0.34 0.34 0.34 0.31 0.32 0.32 0.31 0.25 0.36 0.36 0.38 0.36 0.43 0.37 0.36 0.38 0.29 0.28 0.22 0.24 0.23 0.21 0.21 0.25 0.23 0.21 0.20 0.18 0.18 0.17 0.18 0.18 0.16 0.14 0.12 0.17 0.15 0.12 0.09 0.09 0.06 0.08 0.11 0.15 0.14 0.14 0.18 0.23 0.29 0.30 0.32 0.34 0.38 0.41 0.44 0.45 0.47 0.51
0.27 0.15 0.19 0.36 0.41 0.43 0.33 0.20 0.27 0.30 0.27 0.24 0.25 0.32 0.30 0.41 0.36 0.36 0.35 0.37 0.36 0.34 0.38 0.32 0.31 0.28 0.27 0.26 0.29 0.33 0.35 0.34 0.35 0.33 0.35 0.32 0.37 0.35 0.39 0.42 0.41 0.43 0.39 0.34 0.37 0.44 0.41 0.36 0.27 0.23 0.23 0.24 0.25 0.26 0.26 0.25 0.24 0.22 0.21 0.19 0.20 0.20 0.20 0.16 0.12 0.12 0.14 0.14 0.15 0.14 0.10 0.08 0.13 0.16 0.15 0.14 0.15 0.18 0.23 0.28 0.31 0.33 0.36 0.39 0.43 0.46 0.48 0.52
0.27 0.20 0.36 0.40 0.46 0.41 0.30 0.20 0.26 0.26 0.26 0.31 0.36 0.35 0.39 0.38 0.37 0.39 0.33 0.34 0.31 0.35 0.32 0.29 0.28 0.26 0.29 0.28 0.30 0.31 0.35 0.34 0.36 0.34 0.38 0.38 0.38 0.41 0.42 0.42 0.44 0.43 0.42 0.38 0.46 0.44 0.42 0.32 0.26 0.25 0.28 0.28 0.28 0.28 0.28 0.27 0.26 0.23 0.23 0.23 0.21 0.19 0.19 0.18 0.16 0.16 0.14 0.14 0.13 0.12 0.10 0.10 0.15 0.17 0.17 0.16 0.17 0.16 0.18 0.21 0.22 0.25 0.31 0.35 0.38 0.41 0.43 0.47
0.31 0.27 0.29 0.40 0.48 0.42 0.26 0.16 0.20 0.22 0.25 0.30 0.31 0.31 0.37 0.38 0.38 0.36 0.34 0.36 0.33 0.32 0.30 0.30 0.32 0.32 0.29 0.33 0.31 0.27 0.35 0.29 0.41 0.39 0.37 0.40 0.39 0.46 0.45 0.43 0.44 0.40 0.40 0.41 0.36 0.41 0.29 0.33 0.27 0.22 0.22 0.23 0.25 0.26 0.25 0.27 0.26 0.23 0.22 0.23 0.22 0.22 0.21 0.21 0.20 0.21 0.15 0.15 0.14 0.12 0.08 0.09 0.14 0.19 0.19 0.19 0.19 0.18 0.17 0.16 0.18 0.18 0.22 0.30 0.35 0.39 0.43 0.47
0.33 0.35 0.34 0.34 0.42 0.41 0.25 0.31 0.27 0.26 0.26 0.25 0.25 0.24 0.29 0.33 0.40 0.41 0.38 0.37 0.40 0.36 0.35 0.32 0.34 0.36 0.32 0.35 0.31 0.32 0.34 0.34 0.34 0.42 0.41 0.40 0.40 0.46 0.45 0.44 0.45 0.42 0.48 0.48 0.44 0.46 0.34 0.31 0.28 0.20 0.18 0.16 0.16 0.16 0.17 0.20 0.22 0.24 0.24 0.24 0.23 0.21 0.20 0.20 0.17 0.18 0.15 0.15 0.16 0.13 0.11 0.14 0.16 0.18 0.18 0.19 0.19 0.18 0.19 0.21 0.22 0.22 0.23 0.25 0.31 0.38 0.42 0.45
0.30 0.19 0.27 0.28 0.35 0.38 0.36 0.39 0.34 0.31 0.29 0.28 0.22 0.23 0.28 0.27 0.36 0.41 0.44 0.41 0.43 0.42 0.38 0.38 0.38 0.38 0.34 0.33 0.29 0.29 0.29 0.35 0.33 0.36 0.38 0.38 0.41 0.43 0.45 0.44 0.43 0.45 0.49 0.47 0.44 0.43 0.36 0.37 0.34 0.30 0.25 0.22 0.24 0.29 0.33 0.33 0.28 0.21 0.22 0.24 0.23 0.24 0.22 0.20 0.20 0.18 0.15 0.17 0.15 0.14 0.14 0.14 0.15 0.15 0.16 0.17 0.18 0.18 0.18 0.20 0.21 0.21 0.23 0.24 0.25 0.29 0.34 0.39
0.39 0.26 0.27 0.21 0.29 0.34 0.30 0.32 0.30 0.34 0.28 0.34 0.23 0.28 0.23 0.26 0.31 0.36 0.46 0.38 0.45 0.41 0.42 0.40 0.37 0.33 0.32 0.32 0.30 0.28 0.31 0.29 0.33 0.34 0.38 0.38 0.41 0.43 0.46 0.44 0.44 0.47 0.48 0.44 0.45 0.41 0.36 0.30 0.32 0.33 0.33 0.35 0.35 0.33 0.34 0.34 0.30 0.29 0.27 0.23 0.24 0.23 0.22 0.20 0.17 0.15 0.19 0.18 0.14 0.16 0.17 0.15 0.15 0.16 0.17 0.17 0.17 0.18 0.18 0.17 0.16 0.16 0.16 0.17 0.20 0.25 0.32 0.38
0.29 0.33 0.37 0.39 0.28 0.22 0.24 0.24 0.33 0.32 0.34 0.34 0.28 0.33 0.27 0.26 0.27 0.26 0.38 0.42 0.44 0.45 0.38 0.39 0.41 0.40 0.37 0.33 0.33 0.26 0.30 0.28 0.29 0.28 0.37 0.40 0.39 0.42 0.40 0.44 0.43 0.46 0.45 0.42 0.44 0.39 0.34 0.29 0.33 0.35 0.32 0.34 0.35 0.34 0.35 0.34 0.33 0.33 0.31 0.28 0.24 0.23 0.22 0.19 0.18 0.19 0.19 0.17 0.13 0.16 0.18 0.17 0.17 0.17 0.17 0.17 0.17 0.17 0.17 0.17 0.17 0.17 0.17 0.17 0.18 0.22 0.26 0.30
0.41 0.41 0.39 0.44 0.29 0.31 0.31 0.32 0.36 0.33 0.31 0.32 0.32 0.32 0.28 0.29 0.26 0.29 0.29 0.34 0.37 0.38 0.40 0.33 0.36 0.39 0.39 0.39 0.35 0.29 0.30 0.23 0.24 0.31 0.30 0.35 0.38 0.38 0.37 0.39 0.45 0.46 0.43 0.41 0.41 0.43 0.37 0.32 0.36 0.35 0.31 0.32 0.33 0.34 0.36 0.34 0.32 0.32 0.30 0.30 0.28 0.25 0.22 0.21 0.19 0.20 0.20 0.18 0.19 0.19 0.20 0.19 0.20 0.19 0.19 0.19 0.19 0.19 0.19 0.21 0.21 0.19 0.18 0.19 0.20 0.23 0.28 0.30
0.38 0.35 0.33 0.42 0.39 0.35 0.35 0.36 0.35 0.33 0.28 0.32 0.28 0.29 0.32 0.31 0.28 0.30 0.32 0.28 0.27 0.31 0.42 0.34 0.36 0.40 0.41 0.39 0.37 0.31 0.31 0.32 0.32 0.27 0.33 0.33 0.35 0.38 0.38 0.39 0.38 0.43 0.42 0.39 0.39 0.41 0.36 0.30 0.35 0.34 0.31 0.30 0.33 0.35 0.36 0.34 0.32 0.29 0.30 0.30 0.29 0.27 0.24 0.22 0.22 0.21 0.21 0.20 0.20 0.20 0.20 0.20 0.23 0.24 0.22 0.22 0.23 0.24 0.25 0.23 0.22 0.21 0.20 0.21 0.24 0.27 0.27 0.26
0.51 0.53 0.49 0.38 0.30 0.33 0.35 0.35 0.32 0.31 0.28 0.30 0.29 0.31 0.32 0.30 0.29 0.33 0.31 0.37 0.31 0.31 0.36 0.33 0.38 0.38 0.40 0.39 0.38 0.36 0.38 0.36 0.36 0.35 0.36 0.35 0.28 0.39 0.38 0.39 0.43 0.38 0.40 0.38 0.39 0.38 0.37 0.32 0.36 0.34 0.29 0.28 0.33 0.33 0.33 0.33 0.32 0.29 0.27 0.27 0.27 0.26 0.23 0.23 0.22 0.23 0.22 0.19 0.20 0.20 0.19 0.19 0.23 0.25 0.24 0.24 0.25 0.25 0.24 0.23 0.23 0.23 0.22 0.23 0.26 0.29 0.28 0.26
0.57 0.60 0.56 0.45 0.30 0.36 0.31 0.35 0.35 0.32 0.26 0.32 0.33 0.32 0.31 0.31 0.34 0.35 0.29 0.37 0.40 0.39 0.37 0.36 0.38 0.38 0.35 0.35 0.34 0.40 0.45 0.43 0.40 0.40 0.40 0.40 0.41 0.39 0.43 0.44 0.44 0.40 0.39 0.38 0.40 0.36 0.36 0.33 0.31 0.31 0.28 0.27 0.32 0.34 0.32 0.32 0.29 0.24 0.23 0.25 0.28 0.30 0.29 0.27 0.26 0.26 0.24 0.23 0.20 0.17 0.17 0.21 0.23 0.24 0.24 0.25 0.26 0.26 0.26 0.25 0.25 0.25 0.26 0.25 0.25 0.26 0.28 0.27
Wind_Speed
17 17 17 17 17 18 18 18 17 17 17 17 17 17 17 17 17 17 17 17 17 16 16 15 15 14 14 14 14 14 13 12 12 12 13 14 15 16 16 15 15 16 16 16 15 15 15 14 14 14 12 11 9 9 10 8 8 6 6 5 4 4 4 3 3 3 3 3 3 4 5 5 3 4 3 3 2 3 3 1 4 4 2 5 8 11 14 14
17 17 17 18 18 18 18 18 18 18 18 18 18 17 17 17 17 17 17 17 17 17 16 16 15 15 14 14 14 14 13 13 12 13 15 15 15 17 18 18 17 17 17 17 17 16 16 15 15 14 12 10 8 9 10 9 9 8 7 6 5 5 4 4 3 2 1 2 4 4 5 4 4 4 4 3 3 3 3 1 3 3 3 6 8 11 13 14
18 18 18 18 18 18 18 18 18 18 18 18 18 18 18 18 18 18 18 17 17 17 16 16 16 15 14 14 13 13 13 12 12 14 14 12 13 16 18 19 19 19 18 18 19 18 17 16 16 14 12 10 9 9 10 9 9 9 8 7 6 6 5 5 4 3 2 3 5 4 4 3 4 5 3 3 3 3 2 2 3 4 6 7 9 12 13 14
18 18 18 18 18 18 18 19 19 19 19 19 18 18 18 18 18 18 18 17 17 17 17 16 16 16 15 14 13 12 12 12 12 12 10 9 10 13 16 19 20 20 19 19 20 19 18 17 17 16 13 11 10 10 10 10 9 9 9 7 6 6 6 6 5 4 4 2 5 5 3 2 3 5 3 4 3 1 2 4 5 6 8 9 11 12 13 14
19 19 19 19 19 19 19 19 19 19 19 19 19 19 19 18 18 18 18 18 17 17 17 16 16 16 15 14 13 12 10 10 10 10 9 9 10 12 15 18 20 21 20 19 19 18 18 18 17 16 13 11 10 10 10 12 10 8 10 9 7 6 6 7 5 4 3 1 3 3 4 3 3 4 4 6 3 0 4 6 6 7 9 10 11 12 13 14
20 20 19 20 20 19 19 19 19 19 19 19 19 19 19 19 19 18 18 18 17 17 17 16 16 15 15 14 12 11 10 9 9 9 10 10 11 12 14 18 20 20 21 20 19 18 18 19 18 16 14 11 11 10 10 12 12 9 9 10 9 8 9 9 6 4 3 2 3 4 5 5 5 4 5 7 4 1 3 6 6 7 8 10 11 12 13 14
20 20 20 20 20 20 20 20 20 20 20 20 20 20 20 20 19 19 19 18 18 17 17 16 16 15 14 13 12 11 11 12 13 12 12 12 12 12 13 18 20 21 21 21 20 19 19 20 19 16 14 12 12 11 10 11 12 11 10 9 10 10 10 10 9 7 5 5 5 6 5 6 7 6 6 9 7 2 1 4 6 6 7 9 11 12 14 14
20 20 20 21 21 21 21 21 21 21 21 20 21 20 20 20 20 19 19 18 18 17 16 16 15 15 14 12 11 11 12 14 14 13 12 12 12 12 13 17 20 21 21 21 21 20 20 21 20 17 15 13 11 11 11 11 12 12 11 10 10 11 12 12 11 10 8 7 7 6 6 8 10 7 7 10 9 3 1 4 5 6 7 8 11 13 13 14
20 21 21 21 21 21 21 22 22 22 22 22 22 21 21 21 20 20 19 19 18 17 16 16 15 14 13 12 11 11 12 13 13 12 11 11 11 11 13 17 20 21 20 21 21 21 21 21 22 18 15 14 13 11 12 12 12 13 13 12 12 12 13 13 12 11 10 8 7 7 8 10 10 7 8 10 8 4 4 5 6 7 8 8 10 12 13 14
21 21 21 21 22 22 22 22 23 23 23 23 23 22 22 22 21 20 19 19 18 18 17 16 15 13 13 12 11 10 11 11 9 8 9 10 11 11 13 17 20 20 20 20 21 22 22 21 22 19 15 14 15 14 13 13 12 12 13 14 15 15 14 13 12 12 11 8 8 9 9 10 9 8 8 8 8 6 5 7 7 7 8 8 9 11 12 14
22 22 22 22 22 23 23 23 23 24 24 24 24 23 23 22 21 20 20 19 19 18 17 15 14 13 12 12 11 11 11 10 9 8 7 9 10 11 13 17 20 20 20 20 21 23 23 22 22 20 17 16 16 15 15 14 13 14 14 14 15 14 14 14 13 12 10 9 10 10 9 9 9 10 9 8 9 8 7 8 9 9 8 8 9 10 11 13
23 23 23 23 23 24 24 24 24 24 25 24 24 23 23 22 22 21 20 19 18 17 16 15 14 13 12 12 13 13 11 10 10 9 9 9 10 11 12 16 19 19 20 20 21 23 23 23 22 21 19 17 16 15 15 15 15 15 14 14 14 12 13 14 12 12 10 9 10 8 6 8 11 11 9 9 10 9 9 9 9 9 9 8 9 9 10 12
23 24 24 24 24 24 25 25 25 25 25 25 24 23 22 22 22 21 19 17 16 15 15 14 13 13 12 11 13 14 14 13 12 12 12 11 10 11 12 15 18 18 19 19 20 22 23 23 23 24 21 18 17 16 15 14 14 14 14 14 13 12 12 12 11 11 10 9 9 7 7 10 13 11 9 10 11 10 9 9 10 10 9 8 8 9 10 12
24 24 25 25 25 25 25 25 26 26 26 25 24 23 22 21 20 19 17 16 15 14 13 13 12 12 12 12 13 13 15 15 15 15 15 14 12 12 13 15 17 18 19 19 19 21 22 22 23 23 22 21 19 17 15 14 13 14 14 14 13 13 13 11 9 10 9 10 11 10 10 12 12 12 11 12 12 12 10 10 11 10 10 9 8 9 10 11
25 25 25 26 26 26 26 26 26 26 26 25 24 23 22 20 18 16 15 13 13 12 12 12 12 12 11 13 14 13 14 14 15 17 16 15 14 13 13 14 17 18 19 19 19 19 21 22 22 21 21 22 21 18 16 15 14 13 14 14 13 13 14 11 11 11 10 10 11 11 10 10 11 11 13 13 14 13 11 11 11 11 11 11 9 9 10 11
26 26 26 26 27 27 27 27 27 27 26 25 24 23 20 18 16 13 12 11 11 11 11 12 13 12 11 11 12 12 12 12 13 15 16 16 16 14 14 14 15 17 18 19 19 19 20 20 21 22 21 21 21 20 18 17 16 14 15 16 14 13 13 12 11 11 11 10 10 12 10 8 8 10 12 14 14 13 11 11 11 11 11 11 11 10 10 10
27 27 27 27 28 28 28 28 27 27 27 25 24 22 19 18 15 13 12 11 11 11 12 13 13 13 13 13 12 11 12 13 13 12 13 16 17 16 14 13 14 16 17 17 18 19 19 19 20 21 21 21 20 20 19 20 19 17 16 16 15 14 13 12 11 10 9 9 11 12 12 10 8 9 12 14 14 13 11 10 11 11 11 11 11 11 10 10
27 27 27 28 28 29 29 28 28 28 27 25 23 21 19 18 17 16 15 14 13 13 13 13 13 13 14 14 13 12 11 12 13 12 12 13 15 16 15 14 14 15 15 15 17 18 19 19 20 20 21 22 21 22 21 20 19 19 17 17 16 15 14 14 13 10 9 10 11 12 13 12 9 10 12 14 15 14 12 11 11 11 12 12 12 12 11 11
28 28 28 29 29 29 29 29 28 27 26 25 22 20 19 19 19 18 18 17 16 15 15 15 14 14 14 13 14 14 13 13 14 14 14 13 14 15 15 14 13 14 14 15 16 18 18 18 19 21 22 23 23 24 23 20 18 19 18 17 17 16 16 15 14 13 11 11 12 12 14 13 11 11 13 13 15 14 12 11 11 11 11 12 12 12 12 11
29 29 29 29 29 30 30 29 29 26 25 23 21 20 19 19 19 19 19 20 20 20 20 19 18 18 18 17 15 14 14 15 15 15 15 15 15 15 15 14 13 13 14 14 15 17 18 18 20 22 22 23 24 24 23 21 20 21 19 18 18 17 17 16 14 15 12 11 13 13 14 14 12 12 13 14 14 13 12 11 12 12 11 12 13 13 13 12
30 30 30 30 30 31 30 30 28 25 24 23 20 18 18 19 20 20 21 23 23 23 24 24 23 23 23 22 19 16 15 15 16 17 16 16 16 16 16 16 14 14 14 14 14 15 17 19 20 21 21 22 23 23 23 23 22 23 21 20 19 19 19 17 16 16 13 12 13 12 13 14 14 14 14 15 15 15 15 14 14 14 12 13 14 15 15 13
32 31 32 31 31 32 31 31 27 24 24 22 20 18 18 20 21 22 22 23 24 24 25 25 25 25 25 25 24 21 18 17 18 20 19 18 18 18 17 17 16 15 15 14 14 14 17 19 19 20 20 21 22 22 23 23 23 23 23 21 21 20 18 17 17 17 15 14 14 13 14 14 14 15 15 16 17 17 18 17 17 16 14 13 14 15 15 13
33 33 32 32 32 32 32 31 27 24 24 22 21 20 20 22 22 23 23 23 25 24 25 26 26 26 26 26 26 24 22 20 20 22 21 19 20 20 19 19 18 17 16 17 17 16 17 17 18 19 19 20 21 22 22 23 23 23 23 22 22 20 18 17 17 16 15 16 15 14 14 13 12 13 15 18 18 18 17 18 18 17 16 15 15 15 16 15
34 34 34 33 33 33 33 31 27 25 25 23 22 21 22 23 24 23 23 24 24 23 24 26 25 25 25 24 24 25 24 22 22 23 23 22 21 20 20 20 19 19 19 19 20 19 18 16 16 18 19 20 21 21 22 22 23 24 24 23 22 21 20 19 18 16 15 15 14 13 13 14 13 13 14 16 18 18 18 18 18 18 18 17 15 15 16 16
35 35 35 35 34 34 34 30 26 27 27 23 22 23 24 25 24 24 23 23 24 21 22 24 23 23 24 23 23 24 23 23 24 24 24 24 23 19 19 20 20 21 21 20 20 20 20 17 14 16 18 19 20 21 21 22 22 23 24 25 24 22 21 20 18 16 16 16 16 14 13 14 14 14 15 14 16 18 17 18 20 19 18 18 16 16 17 17
36 36 36 35 35 35 32 28 27 29 27 24 24 26 26 26 24 24 22 23 24 21 19 21 21 21 21 22 23 22 21 22 24 26 25 25 25 21 20 20 20 21 21 19 18 19 19 18 15 15 17 18 20 21 21 21 21 23 23 23 23 23 22 22 20 18 18 18 18 15 14 14 14 15 15 13 15 17 17 18 20 20 20 19 18 17 17 18
37 37 37 36 36 34 30 28 30 29 26 26 28 28 27 26 24 23 22 21 23 20 18 19 19 20 20 21 23 22 21 20 20 26 27 25 26 23 22 22 20 20 19 18 19 18 17 19 19 18 17 18 19 20 20 20 20 21 20 20 22 23 23 23 22 21 21 19 20 18 17 16 16 17 16 14 15 17 18 19 19 20 21 20 19 18 18 19
38 38 37 37 37 34 30 29 30 29 28 29 30 29 28 26 24 22 20 20 21 18 17 18 18 19 19 20 24 23 22 19 18 25 27 26 26 24 23 23 22 21 20 20 21 18 17 19 21 20 19 18 18 18 19 20 20 19 18 19 20 21 23 22 22 22 21 20 22 22 19 17 17 18 17 15 17 17 19 21 20 20 21 21 20 19 18 19
38 38 38 38 37 34 31 30 29 30 31 31 30 29 28 26 24 21 20 21 21 18 18 18 18 18 18 19 23 24 22 19 18 22 26 28 27 25 24 24 22 21 22 24 23 19 18 20 20 20 20 20 18 17 18 20 20 19 19 19 19 19 21 21 22 22 20 21 24 23 20 17 16 17 17 16 18 18 18 19 19 20 21 21 20 20 19 19
39 39 39 38 36 33 32 31 30 31 32 31 30 30 28 26 24 22 22 23 21 19 19 19 19 19 18 18 21 23 23 21 18 20 25 27 26 25 23 22 21 21 22 24 23 21 19 19 19 19 19 19 18 17 18 20 19 17 18 20 19 19 19 20 21 20 20 23 25 24 22 19 17 17 18 17 17 19 18 17 17 19 21 21 21 20 20 20
40 39 40 38 35 34 32 32 31 31 32 31 30 29 27 25 24 24 25 24 21 21 20 19 20 20 19 20 21 21 23 22 20 20 25 26 25 25 23 22 22 21 22 24 23 22 21 19 19 18 18 18 17 18 19 18 18 17 17 18 19 19 19 20 20 20 21 22 21 22 22 21 19 17 18 19 19 19 19 18 17 18 20 22 22 21 21 20
40 40 40 38 35 34 32 32 33 33 32 30 29 28 27 26 27 29 27 23 21 22 21 21 21 20 20 21 21 21 22 23 22 21 25 27 27 27 26 25 24 22 22 24 21 21 23 22 20 19 19 19 17 17 18 18 18 18 17 18 18 16 17 19 19 19 21 21 19 19 20 22 23 19 19 20 19 19 19 19 19 18 19 21 22 22 22 22
41 40 39 36 34 33 33 33 34 33 32 30 29 28 27 27 30 31 30 25 23 22 22 23 23 22 22 20 20 21 21 22 23 22 23 27 28 28 27 25 26 24 22 22 21 20 21 22 22 21 20 20 19 18 18 18 19 20 20 19 19 16 16 18 18 17 19 19 19 20 20 22 22 20 20 21 20 20 21 21 21 20 20 21 22 22 22 23
41 40 37 34 33 33 34 34 33 32 31 30 29 28 29 31 30 29 29 28 27 25 24 24 23 23 22 20 19 20 20 21 22 23 23 25 27 29 27 26 27 25 21 20 21 22 21 20 22 24 21 20 22 21 18 17 18 20 20 20 20 19 17 17 17 17 17 17 17 19 21 22 20 19 20 21 21 21 22 23 23 22 21 21 21 20 20 22
41 39 36 34 32 33 34 34 33 32 30 29 29 30 32 33 30 28 28 28 29 28 28 27 25 23 23 22 20 20 21 21 21 23 24 25 27 28 28 27 27 26 23 22 21 21 24 22 20 21 21 22 23 21 18 17 18 20 19 20 22 21 18 16 16 17 16 15 16 18 21 22 20 19 20 21 21 21 22 23 23 22 22 21 19 19 19 21
39 37 35 33 32 33 34 34 33 32 30 29 30 33 34 33 31 29 28 28 28 29 29 28 27 25 24 24 23 21 22 22 21 22 24 24 25 26 27 27 28 28 27 25 23 21 22 23 19 18 20 22 23 21 21 21 19 19 21 23 21 19 20 19 18 17 16 16 17 18 20 21 20 20 21 21 21 21 21 22 22 22 23 21 19 19 20 20
38 36 34 33 33 33 34 34 33 32 30 30 32 35 34 33 32 30 29 29 29 29 28 27 26 26 25 25 25 23 23 23 21 22 23 24 24 25 27 26 26 27 27 26 26 24 22 22 21 21 21 22 21 21 23 23 21 20 21 22 19 17 20 20 17 16 16 17 17 17 19 20 19 19 19 20 21 22 22 21 21 22 22 21 20 20 21 21
38 36 34 33 33 34 34 34 33 31 30 31 34 35 33 33 33 31 31 31 31 31 29 28 28 27 25 25 25 24 23 23 23 22 23 24 24 24 26 26 26 26 27 26 27 26 24 23 23 23 23 21 19 21 23 24 24 22 21 20 19 19 20 19 18 16 16 16 15 16 18 20 20 19 17 18 21 22 22 22 22 22 21 20 20 21 22 22
37 35 33 32 33 34 34 33 32 30 30 31 33 34 33 34 33 32 33 33 33 33 32 31 30 28 28 27 26 25 25 24 24 23 23 24 24 24 23 26 27 27 28 29 28 26 25 24 24 24 23 21 21 24 25 25 25 23 21 22 22 20 20 21 20 18 16 16 14 14 15 17 20 20 19 19 20 21 22 22 22 23 22 21 21 21 21 22
35 32 32 33 33 33 32 30 28 28 30 31 32 32 32 34 34 33 33 33 33 33 32 32 31 30 30 30 29 28 27 26 26 25 24 24 25 24 23 25 27 27 28 29 29 28 26 26 26 23 22 23 24 26 26 25 25 25 25 25 24 22 20 20 21 20 18 16 14 13 14 15 16 17 18 20 21 21 21 21 22 23 24 25 24 22 22 22
33 31 32 33 33 32 29 26 26 27 29 30 31 32 32 33 34 34 33 32 32 34 34 33 33 32 32 31 31 30 29 28 28 27 27 25 25 25 24 24 26 27 27 26 27 27 28 28 27 25 24 26 27 27 26 26 26 26 27 27 26 24 21 19 20 21 20 18 16 14 15 16 15 14 15 18 19 20 20 20 20 21 23 25 25 25 24 22
31 30 31 32 31 29 26 25 25 26 28 29 30 31 32 33 33 33 33 32 32 33 34 34 34 33 33 32 32 31 30 30 30 29 27 26 26 27 25 24 25 26 25 25 26 28 28 28 28 28 27 27 27 26 26 26 26 27 28 28 27 27 25 23 22 20 20 20 18 15 16 17 16 16 15 16 17 19 20 21 21 22 24 24 24 25 25 23
29 30 31 30 28 27 24 24 25 25 26 27 28 30 30 31 31 31 32 32 32 32 32 33 33 32 32 32 32 32 31 30 29 29 28 28 28 27 25 24 24 24 25 25 26 27 28 28 29 28 27 28 27 25 25 24 25 28 29 29 29 30 29 27 24 21 21 22 19 17 17 16 14 14 15 15 16 16 18 20 21 23 24 24 24 25 25 24
28 28 27 26 25 23 22 22 23 24 26 26 27 28 28 28 29 30 31 31 31 31 32 32 32 32 32 33 32 32 32 31 30 29 29 30 30 28 26 25 25 25 25 25 26 27 27 27 27 26 26 27 27 27 27 26 27 29 29 29 30 31 30 28 25 23 23 24 22 20 18 16 14 13 13 14 14 14 16 17 19 20 22 23 24 25 24 24
25 23 23 24 23 20 19 19 20 22 24 25 26 27 27 27 27 28 30 31 30 30 32 32 32 32 32 32 32 32 32 32 32 31 31 31 31 29 27 27 27 26 26 25 25 27 28 28 27 26 27 28 27 27 27 27 28 29 29 30 31 31 32 30 27 26 26 25 24 24 21 17 15 14 14 14 13 14 14 14 15 17 19 21 23 24 24 24
22 20 20 21 20 17 17 17 19 21 22 22 24 25 25 27 27 26 27 29 28 29 31 31 31 31 31 31 32 33 32 32 33 33 33 32 32 31 30 30 29 28 26 25 24 26 28 28 28 28 29 28 27 27 26 25 27 29 28 30 31 31 32 32 31 31 28 24 27 28 24 20 18 17 16 16 15 15 14 14 14 16 18 20 22 23 24 24
19 18 18 18 17 16 16 17 18 19 20 21 21 23 24 26 27 26 26 27 27 29 30 30 29 30 31 31 33 34 33 33 34 34 33 33 34 33 32 32 31 28 27 26 26 27 27 28 28 28 29 29 28 30 30 28 28 29 29 30 32 31 32 34 35 33 28 26 29 29 25 24 23 20 18 18 17 16 15 15 16 17 17 18 20 22 23 24
17 17 16 15 15 15 16 17 17 18 19 19 20 21 22 23 25 26 26 27 26 27 29 30 29 29 30 31 32 34 33 33 34 34 34 34 34 34 33 34 32 29 28 28 28 28 28 29 29 28 29 30 30 31 32 31 30 30 31 32 32 33 35 37 37 33 30 32 32 28 26 27 25 22 21 20 18 18 18 18 17 16 16 18 19 20 22 23
17 16 15 14 14 14 15 16 17 16 16 17 17 18 20 21 23 24 26 28 27 26 27 29 29 29 30 31 32 33 33 33 34 34 34 35 34 34 34 34 33 31 29 30 30 30 29 30 29 29 30 31 31 31 32 31 31 32 32 33 33 35 37 38 37 35 34 36 34 29 28 29 27 24 23 22 21 20 19 19 18 17 17 18 19 19 21 22
16 15 14 14 13 14 14 14 14 14 14 14 15 15 17 19 21 22 24 27 28 27 27 28 28 29 31 32 32 33 34 34 35 35 35 34 35 35 35 35 34 33 32 32 32 31 31 30 30 29 30 31 31 30 30 32 33 33 34 34 34 36 37 38 37 35 35 35 33 31 31 31 28 25 24 23 21 20 19 20 20 20 19 18 18 19 20 20
15 14 14 13 13 13 12 11 11 12 12 12 12 13 14 16 18 20 22 25 27 28 27 28 29 29 30 31 32 34 34 35 36 36 36 36 37 36 36 36 35 34 34 34 33 32 32 32 31 29 29 31 30 29 30 32 33 35 37 37 36 36 36 35 34 35 35 35 33 33 33 31 27 25 25 24 22 21 22 21 21 21 21 20 19 20 20 20
15 14 13 12 12 12 11 11 10 10 10 10 10 12 13 15 16 18 19 21 23 25 26 28 30 30 30 31 31 32 33 35 37 38 38 39 39 39 39 39 38 37 36 35 34 34 34 33 31 30 30 31 30 29 30 30 31 35 37 36 36 36 35 34 33 34 35 35 34 35 33 28 25 25 25 25 24 23 23 22 21 21 22 22 22 21 21 21
Wind_Direction
321 320 319 318 318 317 316 315 314 313 312 310 308 306 304 302 301 299 298 296 295 294 293 293 294 294 292 290 288 287 284 277 269 259 248 246 238 230 227 221 216 210 206 204 200 195 194 197 197 196 198 202 210 208 207 216 215 212 215 219 217 213 210 193 191 198 204 214 178 163 155 135 115 117 106 98 93 132 154 192 185 185 201 181 174 170 172 172
320 319 318 317 317 316 315 314 314 313 312 310 309 307 305 303 301 299 297 296 294 292 291 290 290 291 291 290 287 286 284 276 269 259 251 250 242 234 229 222 216 210 205 202 199 196 196 198 197 197 198 202 212 208 207 214 212 213 216 218 213 206 204 189 184 197 215 217 202 187 169 156 141 135 125 99 87 116 121 133 168 168 163 170 171 170 176 177
318 318 317 316 316 315 314 314 313 312 311 310 309 307 306 303 301 299 297 295 293 291 289 288 288 288 288 287 287 285 281 276 270 260 253 248 236 231 226 220 215 210 207 204 201 200 199 197 195 195 198 206 212 206 206 210 210 216 218 213 206 207 214 208 203 230 266 207 198 204 186 172 157 153 139 107 110 128 127 137 149 162 168 172 174 172 178 180
315 315 315 314 314 314 313 312 311 311 310 309 308 307 305 303 301 299 297 295 292 290 288 287 285 285 284 284 285 283 279 276 267 254 245 233 227 227 222 216 211 208 207 204 202 201 199 196 195 195 199 209 214 209 210 209 207 212 210 201 197 202 206 203 196 221 260 211 189 200 189 190 172 166 156 126 115 113 200 180 167 166 170 173 175 175 178 182
314 313 312 311 312 312 311 310 310 309 309 308 307 306 305 303 301 298 296 294 292 290 288 286 285 283 282 281 280 277 276 273 261 245 235 231 233 232 223 214 208 206 204 201 201 199 197 196 196 198 202 209 212 213 217 213 212 214 208 205 209 210 207 210 199 200 247 247 172 190 201 208 191 183 180 162 144 247 219 204 184 170 169 171 177 179 179 182
313 312 310 310 309 309 308 308 308 307 307 307 306 305 304 302 300 298 295 293 291 289 287 285 284 281 280 278 273 268 262 260 257 245 244 247 242 234 223 211 205 204 201 198 199 199 198 196 196 201 206 211 212 212 214 213 214 219 213 210 216 217 218 230 229 207 228 248 202 211 220 206 203 218 202 193 201 275 229 201 188 180 173 170 175 180 181 183
312 311 310 309 308 307 307 306 305 305 305 305 304 303 302 300 298 296 294 292 289 287 285 283 282 280 279 275 267 263 256 254 256 254 259 258 243 232 218 208 204 202 201 199 200 200 199 197 198 203 207 213 217 215 217 214 213 219 217 212 221 226 227 238 246 240 234 238 235 225 218 204 212 225 213 212 221 270 298 188 186 182 171 168 173 180 184 185
311 310 309 309 308 307 306 305 304 304 303 302 302 300 299 297 296 294 293 291 288 285 283 280 279 277 276 272 265 264 254 252 258 261 261 250 236 226 210 204 204 202 201 202 202 201 200 198 200 204 208 213 215 214 216 217 217 220 218 216 226 232 235 244 251 253 243 238 242 228 219 218 216 218 216 219 223 233 198 176 180 174 169 173 176 181 186 187
310 310 309 308 308 307 306 305 304 303 302 301 300 298 297 296 294 292 291 289 285 282 280 277 275 273 271 268 266 263 256 255 259 260 251 236 229 220 206 203 204 202 202 204 203 202 202 202 203 205 210 215 217 218 214 214 218 219 222 225 230 234 239 246 249 251 248 243 235 226 234 232 221 222 228 222 217 215 190 177 180 175 175 180 180 182 187 189
310 309 309 308 308 307 306 305 304 303 302 300 298 297 295 294 292 290 288 285 282 278 276 273 270 268 265 263 259 257 258 256 250 248 237 225 220 214 207 203 201 202 203 205 204 203 205 206 207 208 213 216 218 221 218 217 219 222 230 234 234 237 241 243 244 246 251 249 231 226 238 236 225 231 237 221 206 201 185 183 186 182 182 185 185 185 188 192
309 309 308 308 307 307 307 306 305 304 302 300 298 296 295 293 290 288 285 282 278 275 271 267 264 261 262 261 252 250 256 248 239 240 227 218 216 212 211 205 201 202 203 205 205 205 207 209 208 210 216 219 217 220 224 222 225 231 237 240 239 239 241 240 239 241 247 247 233 229 240 236 227 231 229 208 197 196 186 187 192 190 188 188 188 188 191 195
309 308 308 307 307 306 306 306 306 305 302 299 297 296 294 292 288 285 283 279 276 272 266 261 257 256 261 262 250 247 251 244 238 238 224 216 219 217 216 210 206 205 203 204 208 208 210 211 209 210 215 217 217 221 226 223 225 234 236 239 242 242 244 240 234 234 238 245 235 230 249 236 224 226 217 201 196 194 190 190 195 196 192 189 189 191 194 196
308 307 307 307 306 306 306 306 306 305 302 300 298 296 294 291 287 284 280 277 272 267 261 254 252 253 258 259 250 247 250 246 243 242 232 227 229 224 219 215 212 211 208 208 211 211 212 213 211 213 216 217 217 221 227 225 226 235 236 235 240 244 243 234 228 231 239 246 226 216 244 237 226 224 209 200 196 190 192 194 198 199 195 194 193 194 197 197
308 307 306 306 305 305 305 305 305 303 301 300 298 296 294 290 285 282 278 273 266 260 253 248 248 251 253 255 253 251 250 248 245 240 232 230 230 224 218 216 215 215 214 213 214 214 215 215 215 218 221 221 222 227 231 231 227 232 238 237 237 239 237 229 225 230 244 245 218 214 243 240 231 225 208 200 195 190 194 199 201 200 197 198 197 197 199 200
308 307 306 306 305 305 305 305 304 302 300 299 297 296 293 287 284 280 275 269 260 252 245 244 246 249 255 259 258 254 248 245 240 234 230 227 224 221 217 215 216 216 216 216 217 217 216 217 218 220 224 224 225 229 230 231 229 227 234 239 236 234 236 236 232 229 241 245 220 218 241 243 233 220 206 200 196 194 197 200 204 204 201 200 200 200 200 201
307 307 306 306 305 305 304 304 303 301 299 298 296 294 288 283 280 276 271 264 254 246 244 247 246 247 256 261 259 253 243 238 238 233 230 228 224 222 217 214 216 216 216 218 218 218 217 218 220 221 223 223 223 224 227 232 232 228 230 235 232 231 237 241 240 235 237 241 229 226 235 244 237 216 204 200 197 198 200 204 206 208 206 202 201 203 201 201
307 306 306 306 305 305 304 304 302 300 298 296 294 289 282 278 273 268 265 260 255 250 251 250 245 249 256 256 256 254 242 236 237 233 228 227 225 221 217 217 218 215 215 218 219 218 218 219 221 222 222 223 222 220 225 231 231 228 228 231 230 229 232 237 241 241 235 233 233 233 236 245 244 218 205 201 200 201 204 207 208 210 211 206 203 204 204 203
306 305 305 306 305 304 303 302 301 300 297 295 292 284 276 271 266 265 263 262 261 256 256 252 244 251 255 250 252 251 242 236 236 233 228 225 221 218 218 219 218 213 212 217 219 217 218 221 220 222 223 222 221 219 223 228 225 223 225 230 233 231 231 234 238 240 241 240 236 234 238 244 244 225 213 208 205 206 209 210 209 210 212 208 205 205 206 206
304 304 304 305 305 304 303 301 301 299 295 293 289 279 272 269 265 264 262 262 261 255 255 250 241 249 253 249 251 249 242 238 236 233 228 222 217 215 217 218 215 211 210 214 219 216 216 221 221 222 223 221 221 222 224 226 222 221 223 227 231 232 233 233 236 242 245 247 240 233 238 241 234 225 222 217 212 212 213 212 211 212 214 210 207 208 209 209
304 303 303 304 304 304 302 301 301 297 293 292 286 276 273 273 268 265 267 266 260 255 256 253 246 250 255 254 253 250 243 238 236 232 227 223 216 213 216 216 214 215 215 214 218 218 214 221 225 224 223 220 221 223 224 226 226 227 227 229 231 233 236 232 235 244 244 246 244 237 239 242 235 229 226 220 216 218 217 213 212 211 212 212 209 209 210 211
303 302 303 302 302 302 301 301 299 293 293 290 282 275 272 273 269 267 272 270 262 257 256 254 250 250 253 252 250 248 245 241 239 234 230 226 217 214 218 216 213 218 220 213 215 219 216 224 228 224 222 220 221 222 223 225 228 230 231 233 235 234 236 234 233 241 241 242 248 243 240 241 237 233 231 223 219 222 220 215 214 211 211 214 212 211 211 209
302 301 302 301 301 301 299 300 295 289 291 286 278 276 272 273 272 269 269 267 264 260 257 255 252 251 251 250 248 245 243 242 242 238 230 225 221 220 219 218 218 220 220 215 217 221 223 229 228 222 221 221 222 222 222 224 226 229 231 233 237 234 237 239 236 239 239 241 249 245 239 241 239 232 229 225 225 229 226 221 218 212 209 213 212 212 211 207
302 301 300 299 299 299 298 297 290 284 289 284 275 276 275 276 276 273 268 264 263 259 255 254 251 250 248 248 245 239 238 237 239 238 228 221 225 224 219 219 221 220 219 219 220 221 227 235 227 219 220 220 223 224 222 225 227 228 229 231 235 232 233 239 240 239 236 239 245 241 239 244 242 233 230 229 231 235 234 230 226 217 212 213 213 212 210 207
301 300 299 299 298 297 296 293 284 282 288 281 271 273 277 279 278 276 269 265 262 256 254 253 249 248 247 245 241 234 235 235 235 237 228 220 223 224 222 222 221 222 223 222 223 225 230 239 228 217 219 219 224 226 223 226 230 230 229 230 232 231 231 237 240 241 240 240 240 238 247 251 240 231 233 231 231 233 232 228 225 220 218 218 218 217 213 210
300 299 299 298 297 296 294 288 280 284 286 275 268 272 278 280 278 276 270 266 264 257 255 253 249 247 244 241 239 234 236 236 234 234 229 221 220 223 226 224 223 225 225 223 226 231 233 236 227 219 222 222 224 227 225 225 229 233 232 229 231 231 231 235 239 244 245 244 240 237 245 251 242 234 235 233 229 229 228 225 222 219 218 219 220 220 217 215
300 299 298 297 296 296 291 282 280 284 281 270 269 276 278 278 276 272 267 266 265 258 253 253 249 245 240 237 235 234 238 240 236 231 229 223 220 223 225 225 227 227 224 224 229 235 232 229 225 223 224 223 226 230 227 223 228 234 231 226 228 230 231 233 236 240 241 241 240 235 235 246 249 240 236 234 229 228 228 226 223 219 217 218 218 218 218 216
299 299 298 297 297 295 286 279 281 281 275 271 274 277 276 275 273 267 264 266 264 255 248 249 248 243 241 235 227 228 238 241 234 229 226 221 219 222 224 225 226 226 224 225 231 234 228 223 225 225 224 225 228 230 226 220 226 232 226 221 224 228 230 231 233 237 239 242 243 237 234 246 250 241 236 233 231 234 232 229 225 220 218 218 218 218 218 218
299 298 297 296 296 292 282 278 279 276 273 274 275 274 274 273 267 260 259 261 258 252 246 244 243 242 242 234 225 228 238 238 233 230 224 219 219 221 225 225 224 225 222 222 229 232 226 223 224 224 225 228 228 227 222 219 226 228 222 222 224 226 228 229 230 236 240 244 245 239 234 241 247 244 241 234 231 235 232 229 226 221 218 217 217 218 218 219
299 298 297 296 294 289 281 277 276 274 275 275 273 271 270 267 260 255 254 254 253 252 248 242 241 244 243 233 231 235 238 236 236 230 220 218 221 223 227 226 223 225 225 225 230 233 231 227 224 225 228 230 228 226 220 219 226 227 224 229 230 229 231 230 231 237 240 241 242 239 232 237 247 245 239 234 231 231 229 227 227 224 222 220 219 219 219 220
299 298 296 295 291 286 281 277 274 275 276 274 271 268 265 259 253 250 249 249 251 253 250 244 242 246 242 235 238 240 236 236 238 227 218 220 222 224 227 225 223 227 230 232 232 234 237 232 226 228 230 230 228 226 223 220 222 225 227 232 235 237 237 236 237 237 240 243 241 237 231 235 247 242 232 231 229 226 225 225 227 227 225 223 221 220 219 220
299 298 297 294 288 283 279 277 276 277 276 272 269 264 259 253 248 246 247 249 252 252 250 247 243 244 242 238 240 238 233 233 234 226 221 221 221 223 224 223 224 226 230 234 233 234 238 234 231 233 229 225 225 227 228 223 219 222 225 226 232 239 239 239 239 235 238 244 241 234 230 233 240 236 229 232 231 225 223 223 224 226 224 223 222 221 219 219
299 298 296 292 286 280 277 277 278 278 275 269 264 258 252 250 247 244 246 251 252 250 247 244 243 243 243 241 239 236 231 229 229 227 224 222 221 222 222 222 221 222 227 231 230 231 234 234 235 235 229 221 220 226 228 226 221 221 222 220 223 232 234 234 234 233 239 246 241 232 230 233 237 235 230 232 232 227 224 222 222 222 222 222 222 222 221 220
299 297 295 290 284 279 278 278 278 276 273 266 258 253 248 247 248 244 245 247 248 249 246 243 245 243 241 241 240 237 233 229 226 226 226 223 222 223 224 224 221 221 226 226 224 227 232 237 235 232 231 224 219 222 225 225 223 220 220 218 218 223 228 231 234 238 243 246 243 234 232 236 241 240 233 229 229 227 224 223 224 223 223 223 222 222 221 221
300 297 293 287 282 280 279 279 277 274 270 262 254 250 244 245 249 248 246 246 246 249 248 246 247 244 239 239 239 238 235 232 229 226 225 223 222 222 224 225 223 223 225 225 224 224 227 235 231 227 229 224 222 225 223 222 223 222 221 220 222 223 225 230 233 236 242 247 243 234 230 233 236 237 234 227 227 227 224 225 227 228 227 225 225 224 223 223
300 297 292 284 281 281 280 279 277 273 266 258 252 247 243 244 248 249 248 247 246 248 250 249 247 244 242 240 238 238 233 232 233 229 225 223 223 222 223 224 224 224 224 225 228 226 226 233 233 228 227 222 222 227 222 219 224 225 220 221 227 226 225 233 235 233 241 249 245 234 234 237 237 241 242 233 229 227 226 227 229 231 231 228 226 224 222 223
299 297 291 284 282 284 282 280 277 270 262 254 249 246 245 245 246 246 248 248 246 249 251 249 245 243 244 241 238 239 235 233 234 230 226 224 224 225 225 225 225 224 224 226 228 226 226 233 232 228 228 224 222 222 221 220 223 224 221 222 227 226 225 234 240 240 243 249 246 238 242 248 246 245 244 236 233 230 227 229 228 230 232 229 225 222 221 221
299 296 290 283 284 286 283 280 275 266 257 250 246 247 247 245 244 244 247 248 247 248 248 245 242 240 240 239 237 237 235 233 232 230 227 224 225 229 229 228 228 227 228 230 230 227 227 233 232 224 226 230 223 219 223 222 218 220 222 223 226 228 228 231 238 242 241 247 250 242 242 247 244 243 241 233 233 233 230 229 229 230 231 229 226 225 224 222
298 295 287 283 286 287 284 281 272 262 254 249 247 248 247 245 246 245 247 248 246 245 243 242 240 238 237 237 236 235 233 231 231 230 226 223 225 228 228 228 229 230 232 232 231 229 228 233 234 227 224 228 223 220 225 226 223 224 225 222 222 225 227 227 232 237 237 244 252 248 246 243 237 238 238 231 232 234 232 230 229 230 230 229 227 226 226 225
297 292 285 284 288 288 285 279 268 258 253 250 248 247 246 246 247 247 249 249 246 243 242 240 239 238 237 236 236 236 233 231 231 229 226 225 226 227 228 228 229 233 235 231 227 228 229 230 234 231 226 224 223 222 223 224 227 228 227 226 226 227 227 226 229 232 235 242 250 253 252 246 240 237 234 233 233 233 232 231 230 230 229 228 227 226 226 226
297 290 283 285 289 289 285 275 266 259 254 251 249 248 248 247 246 247 249 248 244 242 241 239 238 237 237 237 237 236 235 233 232 229 227 229 227 227 231 231 230 234 237 231 227 229 230 230 232 231 227 224 225 225 223 221 224 225 225 226 227 229 229 230 233 233 233 239 243 250 252 249 246 239 231 231 234 232 232 231 231 231 229 228 228 228 228 227
296 287 283 286 289 289 283 272 266 260 254 252 251 250 250 249 247 246 246 245 243 240 239 238 237 237 237 237 236 236 235 234 233 230 229 231 229 228 233 233 231 234 234 230 228 229 229 230 230 228 227 227 228 228 225 223 224 224 226 227 226 227 226 228 236 236 233 237 239 243 252 253 248 239 232 231 233 233 231 228 229 231 231 229 229 230 231 229
295 288 285 287 289 287 279 269 264 258 252 253 255 252 251 249 247 246 243 243 243 241 240 239 237 236 235 235 234 234 234 233 232 231 228 229 229 228 233 237 235 233 230 227 227 227 228 230 230 228 228 229 231 232 230 229 227 227 229 228 226 226 224 225 233 235 233 237 240 242 252 255 248 237 232 232 232 233 231 228 228 231 231 229 228 230 232 231
296 290 288 289 289 286 276 267 264 258 252 254 255 253 251 249 247 246 243 242 241 240 239 238 236 235 233 233 232 232 232 231 230 229 226 227 227 228 234 240 237 232 229 227 228 229 230 230 230 231 233 233 234 236 237 234 229 229 230 228 226 226 226 228 233 234 234 235 235 239 246 249 247 240 234 236 237 238 237 232 230 232 232 228 228 231 233 232
298 292 289 292 292 285 275 268 266 261 257 257 256 252 250 248 247 247 243 240 240 238 236 236 235 234 234 233 231 230 231 230 228 227 226 226 227 228 234 240 237 231 228 228 230 230 230 230 229 230 231 231 233 234 236 233 230 230 231 228 227 227 226 230 233 233 237 234 228 232 238 238 245 248 242 242 244 243 244 240 235 235 235 232 231 234 235 233
301 294 290 294 294 285 277 272 268 265 262 260 256 251 248 246 247 248 244 240 239 238 236 235 236 235 234 234 231 230 230 228 228 228 226 227 227 227 233 238 234 230 230 232 234 231 229 229 229 229 228 228 229 229 229 231 232 233 232 229 228 227 225 228 231 232 236 234 228 232 238 240 248 250 243 241 243 244 247 245 239 236 236 235 234 235 234 232
307 299 294 297 294 284 278 277 273 268 264 262 256 249 246 245 244 246 243 239 240 241 238 236 236 236 235 234 232 230 230 229 229 230 229 229 229 228 233 236 232 230 232 235 238 233 229 231 231 230 231 231 232 231 230 232 234 235 235 230 228 228 226 227 230 232 233 234 234 236 238 240 244 241 238 240 241 242 243 242 240 238 236 237 236 235 234 232
311 305 302 302 296 286 283 282 278 271 266 263 255 248 246 245 242 242 239 237 240 242 237 234 234 235 235 236 234 231 231 230 230 230 230 231 231 231 234 233 231 233 233 233 236 233 230 233 232 232 233 233 236 237 237 237 236 236 237 233 229 227 227 227 231 232 230 232 238 239 235 237 240 238 238 240 240 242 244 244 243 244 243 243 241 238 236 235
314 310 309 305 298 293 290 286 283 276 270 265 255 250 250 246 242 240 238 237 239 240 236 233 234 235 235 235 234 232 231 231 231 230 230 232 233 233 233 232 231 234 234 233 234 232 230 233 233 235 238 237 237 239 238 237 237 236 236 235 232 229 227 229 232 232 229 233 239 239 234 235 239 239 239 239 237 238 242 243 246 250 252 251 245 240 237 237
315 312 311 309 303 298 295 290 287 281 274 268 259 252 252 250 245 241 238 238 239 239 236 235 237 238 238 236 234 232 232 232 231 231 231 233 234 233 233 232 231 233 234 233 234 232 231 233 234 237 240 240 239 239 237 237 238 239 237 236 234 232 230 232 233 232 232 237 240 238 235 237 238 238 239 240 240 242 243 245 248 251 253 251 246 241 238 237
317 314 313 313 308 301 296 292 289 284 279 274 265 256 254 253 250 246 241 239 238 237 236 238 240 240 239 238 236 235 234 233 232 232 233 234 235 233 232 231 231 233 234 233 233 234 233 234 236 238 241 241 239 239 239 238 240 240 239 236 235 235 234 234 234 234 234 238 240 238 237 239 241 242 243 244 245 247 247 246 246 246 249 249 245 240 238 238
316 315 314 314 312 308 303 298 295 290 284 276 271 268 263 258 256 253 247 240 237 235 235 238 241 240 239 239 239 238 237 235 234 235 235 235 234 234 233 232 232 234 233 232 233 234 234 235 236 238 240 240 238 239 242 243 243 241 239 237 235 235 235 235 235 234 234 236 238 239 239 240 241 243 245 245 245 245 245 246 247 247 249 247 242 239 238 241
318 317 316 315 314 313 309 304 300 296 290 283 280 279 272 264 263 259 250 241 238 238 238 239 239 239 237 239 240 240 240 240 239 239 238 237 236 235 235 234 234 233 232 232 234 234 234 234 235 237 239 239 238 240 243 244 242 239 237 236 236 236 236 237 237 236 235 234 236 238 240 240 239 239 240 242 243 242 243 246 247 247 247 245 243 242 243 245